Location: ??????????
(41.2581°N, 22.8006°E)
Time: 23:41:27
(UTC+00:00)

GEOS 3 Rocket - Pass Details

Date: 22 March 2026
Orbit: 767 x 846 km, 115.0° (Epoch: 13 April)

Event Time Altitude Azimuth Distance (km) Brightness Sun altitude
Rises 03:29:53 0° 35° (NE) 3,412 7.6 -11.9°
Reaches altitude 10° 03:32:13 10° 34° (NE) 2,473 6.8 -11.5°
Maximum altitude 03:37:38 85° 307° (NW) 849 3.7 -10.5°
Drops below altitude 10° 03:42:57 10° 220° (SW) 2,434 5.7 -9.5°
Enters shadow 03:44:43 - 219° (SW) 3,145 6.2 -9.2°
